TimePST,TemperatureF,Dew PointF,Humidity,Sea Level PressureIn,VisibilityMPH,Wind Direction,Wind SpeedMPH,Gust SpeedMPH,PrecipitationIn,Events,Conditions,WindDirDegrees,DateUTC
12:53 AM,17.1,12.9,84,30.45,4.0,South,4.6,-,0.00,Snow,Light Snow,170,2013-01-14 08:53:00
1:53 AM,17.1,12.9,84,30.45,3.0,SSE,4.6,-,0.00,Snow,Light Snow,150,2013-01-14 09:53:00
2:53 AM,17.1,14.0,88,30.45,4.0,SSE,4.6,-,0.00,Snow,Light Snow,160,2013-01-14 10:53:00
3:53 AM,18.0,15.1,88,30.43,4.0,SE,3.5,-,0.01,Snow,Light Snow,140,2013-01-14 11:53:00
4:53 AM,18.0,15.1,88,30.40,9.0,South,4.6,-,0.00,,Overcast,170,2013-01-14 12:53:00
5:53 AM,19.0,16.0,88,30.41,6.0,SSE,3.5,-,0.00,Snow,Light Snow,150,2013-01-14 13:53:00
6:35 AM,19.4,15.8,86,30.28,3.0,SSE,5.8,-,0.02,Snow,Light Snow,160,2013-01-14 14:35:00
6:53 AM,19.0,16.0,88,30.40,1.0,South,4.6,-,0.03,Snow,Light Snow,170,2013-01-14 14:53:00
7:17 AM,19.4,15.8,86,30.30,4.0,SSE,5.8,-,0.01,,Overcast,150,2013-01-14 15:17:00
7:51 AM,19.4,15.8,86,30.28,2.5,SSE,6.9,-,0.01,Snow,Light Freezing Drizzle,150,2013-01-14 15:51:00
7:53 AM,19.0,16.0,88,30.39,2.5,SSE,6.9,-,0.01,Snow,Light Freezing Drizzle,150,2013-01-14 15:53:00
8:24 AM,19.4,17.6,93,30.29,2.0,SE,4.6,-,0.00,,Light Freezing Drizzle,140,2013-01-14 16:24:00
8:53 AM,19.9,17.1,89,30.38,2.0,SSE,9.2,-,0.00,Snow,Light Freezing Drizzle,150,2013-01-14 16:53:00
9:22 AM,19.4,17.6,93,30.28,2.0,SSE,5.8,-,0.01,,Light Freezing Drizzle,150,2013-01-14 17:22:00
9:53 AM,21.0,19.0,92,30.39,2.0,SSE,5.8,-,0.01,Snow,Light Freezing Drizzle,150,2013-01-14 17:53:00
10:11 AM,21.2,19.4,93,30.28,5.0,SSE,4.6,-,0.00,,Overcast,150,2013-01-14 18:11:00
10:53 AM,21.9,19.0,89,30.38,10.0,SSE,4.6,-,0.00,,Overcast,160,2013-01-14 18:53:00
11:39 AM,21.2,19.4,93,30.26,10.0,SSE,6.9,-,N/A,,Overcast,160,2013-01-14 19:39:00
11:53 AM,21.9,19.0,89,30.36,10.0,SSE,6.9,-,N/A,,Overcast,160,2013-01-14 19:53:00
12:53 PM,23.0,19.0,85,30.37,10.0,SE,4.6,-,N/A,,Overcast,140,2013-01-14 20:53:00
1:53 PM,23.0,19.4,86,30.28,10.0,SSE,4.6,-,N/A,,Overcast,150,2013-01-14 21:53:00
2:53 PM,24.1,19.0,81,30.39,10.0,SSE,4.6,-,N/A,,Overcast,160,2013-01-14 22:53:00
3:53 PM,24.1,18.0,77,30.39,7.0,South,4.6,-,0.00,,Overcast,180,2013-01-14 23:53:00
4:53 PM,24.1,18.0,77,30.41,10.0,SSE,3.5,-,N/A,,Overcast,160,2013-01-15 00:53:00
5:53 PM,24.1,19.0,81,30.42,10.0,SSE,3.5,-,N/A,,Overcast,160,2013-01-15 01:53:00
6:53 PM,24.1,19.0,81,30.44,10.0,Calm,Calm,-,N/A,,Overcast,0,2013-01-15 02:53:00
7:53 PM,24.1,19.0,81,30.45,10.0,Calm,Calm,-,N/A,,Overcast,0,2013-01-15 03:53:00
8:53 PM,23.0,19.9,88,30.46,7.0,NNE,3.5,-,N/A,,Overcast,30,2013-01-15 04:53:00
9:53 PM,21.9,19.9,92,30.46,7.0,Calm,Calm,-,N/A,,Overcast,0,2013-01-15 05:53:00
10:20 PM,19.4,17.6,93,30.37,4.0,NE,3.5,-,N/A,,Mostly Cloudy,40,2013-01-15 06:20:00
10:53 PM,21.0,19.0,92,30.48,4.0,ENE,3.5,-,N/A,,Overcast,60,2013-01-15 06:53:00
11:53 PM,21.9,19.0,89,30.49,6.0,Calm,Calm,-,N/A,,Overcast,0,2013-01-15 07:53:00